Location: Pianadetto
(44.4000°N, 10.1000°E)
Time: 23:15:44
(UTC+00:00)

Cosmos 292 Rocket - Pass Details

Date: 26 May 2022
Orbit: 674 x 692 km, 74.0° (Epoch: 02 July)

Event Time Altitude Azimuth Distance (km) Brightness Sun altitude
Exits shadow 01:48:19 25° 196° (SSW) 1,364 4.8 -15.9°
Maximum altitude 01:51:07 84° 110° (ESE) 693 3.7 -15.6°
Drops below altitude 10° 01:55:55 10° 22° (NNE) 2,131 7.5 -15.1°
Sets 01:58:13 0° 22° (NNE) 3,047 8.6 -14.8°
